Terminal Aerodrome Forecast
Issued by NWS Columbia, SC

Home | Current Version | Previous Version | Text Only | Print | Product List | Glossary On
Versions: 1 2 3 4 5 6 7 8 9 10 11 12 13 14 15 16 17 18 19 20 21 22 23 24 25 26 27 28 29 30 31 32 33 34 35 36 37 38 39 40 41 42 43
000
FTUS42 KCAE 291100
TAFAGS
TAF
KAGS 291136Z 2912/3012 VRB04KT 6SM -RA BR SCT005 BKN012 OVC025
      TEMPO 2913/2916 3SM RA BR BKN005 OVC012
     FM291800 VRB04KT 6SM BR SCT008 OVC015
     FM300200 VRB03KT 3SM BR SCT007 OVC015
     FM300500 VRB03KT 2SM BR OVC007=

USA.gov is the U.S. government's official web portal to all federal, state and local government web resources and services.